User: anonymous   Login
Location: Enborne
(51.3833°N, 1.3667°W)
Time: 17:16:25
(UTC+00:00)
Language:

Abrixas rocket - Orbit

View from above orbital plane
View from above orbital plane
View from above satellite
View from above satellite

Ground track
Ground track

The orbit data is extracted from the following two-line orbital elements,

1 25723U 99022C   20337.94003691  .00067436  00000-0  30399-3 0  9991
2 25723  48.4084 154.0401 0001655 179.6349 180.4609 15.83307957204585
Epoch (UTC): 02 December 2020 22:33:39
Eccentricity: 0.0001655
inclination: 48.4084°
perigee height: 320 km
apogee height: 322 km
right ascension of ascending node: 154.0401°
argument of perigee: 179.6349°
revolutions per day: 15.83307957
mean anomaly at epoch: 180.4609°
orbit number at epoch: 20458

The dashed part of the orbit path shows where the satellite is in the earth's shadow,  

DLR